sat.trackr.live / text

‹ back to catalog

STARLINK-36788

NORAD 67819 · 2026-032Y

PAYLOAD ACTIVE UNKNOWN

§ Identity

Operator
Country
US
Launch date
2026-02-15
Launch site
AFWTR
Launch vehicle
Mass (kg)
RCS (m²)

Purposes: comms

External: N2YO · Heavens-Above · Gunter

§ Orbital elements

Epoch: 2026-05-25T01:16:40.494144Z

Period
93.91 min
Inclination
97.2851°
Eccentricity
0.0001573
Mean motion
15.33456479 rev/d
Perigee alt
464.4 km
Apogee alt
466.6 km
Semi-major
6,843.6 km
B*
3.4723e-4
RAAN
333.1494°
Arg perigee
95.6775°
Mean anomaly
264.4647°
Rev number
1,666

§ Raw data

STARLINK-367881 67819U 26032Y   26145.05324646  .00011155  00000+0  34723-3 0  99962 67819  97.2851 333.1494 0001573  95.6775 264.4647 15.33456479 16666

JSON: /api/v1/satellites/67819 · /tle

For live sub-satellite position, see the globe view (requires WebGL).

§ Visibility from observer

Set your observer location to see the next 7 days of passes ≥ 10°. The values pass through the URL so the page stays shareable.

No JS? Fill the form by hand. The geolocation button needs JavaScript.